This demonstration page uses our WeatherBlox Daily Observations layout. Learn more.

Left ArrowRight Arrow

Hourly Observations for March 21, 2022

Temp ( °F °C ) Dew Point ( °F °C ) Humidity (%) Winds ( mph kmh ) Pressure ( in mb ) Visibility ( mi km ) Precip ( " mm )
12:56 am 00:56 Clear 59 15 29 -1.7 32 32 S 22 35 29.69 1006 10 16 0.00 0.00
1:56 am 01:56 Clear 60 15.6 28 -2.2 30 30 S 23 37 29.68 1005 10 16 0.00 0.00
2:56 am 02:56 Clear 59 15 28 -2.2 31 31 S 20 31 29.70 1006 10 16 0.00 0.00
3:56 am 03:56 Clear 58 14.4 29 -1.7 33 33 S 18 30 29.70 1006 10 16 0.00 0.00
4:56 am 04:56 Clear 58 14.4 28 -2.2 32 32 SSW 18 30 29.70 1006 10 16 0.00 0.00
5:56 am 05:56 Clear 56 13.3 28 -2.2 34 34 SSW 18 30 29.72 1007 10 16 0.00 0.00
6:56 am 06:56 Clear 52 11.1 28 -2.2 40 40 SSW 10 17 29.76 1008 10 16 0.00 0.00
7:56 am 07:56 Sunny 51 10.6 29 -1.7 43 43 WSW 3 6 29.81 1009 10 16 0.00 0.00
8:56 am 08:56 Sunny 49 9.4 30 -1.1 48 48 NNW 13 20 29.86 1011 10 16 0.00 0.00
9:56 am 09:56 Sunny 47 8.3 29 -1.7 50 50 NNW 21 33 29.87 1012 10 16 0.00 0.00
10:56 am 10:56 Sunny 46 7.8 30 -1.1 54 54 N 18 30 29.88 1012 10 16 0.00 0.00
11:56 am 11:56 Sunny 48 8.9 33 0.6 56 56 N 23 37 29.88 1012 10 16 0.00 0.00
12:56 pm 12:56 Sunny 51 10.6 34 1.1 52 52 N 26 43 29.87 1011 10 16 0.00 0.00
1:56 pm 13:56 Sunny 52 11.1 34 1.1 50 50 NNE 22 35 29.86 1011 10 16 0.00 0.00
2:56 pm 14:56 Mostly Cloudy 52 11.1 33 0.6 49 49 N 23 37 29.86 1011 10 16 0.00 0.00
3:56 pm 15:56 Cloudy 50 10 33 0.6 52 52 N 21 33 29.88 1012 10 16 0.00 0.00
4:56 pm 16:56 Cloudy with Light Rain 47 8.3 37 2.8 69 69 N 24 39 29.86 1011 10 16 0.00 0.00
5:56 pm 17:56 Cloudy with Light Rain 45 7.2 36 2.2 71 71 NNE 18 30 29.89 1012 10 16 0.00 0.00
6:52 pm 18:52 Cloudy with Light Rain 43 6 37 3 81 81 NNE 20 31 29.95 1014 10 16 0.00 0.00
6:56 pm 18:56 Cloudy with Light Rain 43 6.1 38 3.3 82 82 NNE 25 41 29.91 1013 10 16 0.00 0.00
7:56 pm 19:56 Cloudy with Light Rain 41 5 38 3.3 89 89 NNE 23 37 29.92 1013 10 16 0.01 0.25
8:31 pm 20:31 Cloudy with Light Rain 39 4 37 3 93 93 N 18 30 29.98 1015 10 16 0.00 0.00
8:56 pm 20:56 Cloudy with Light Rain 40 4.4 37 2.8 89 89 N 18 30 29.95 1014 10 16 0.00 0.00
9:10 pm 21:10 Cloudy with Light Rain 39 4 37 3 93 93 N 18 30 29.99 1015 10 16 0.00 0.00
9:56 pm 21:56 Cloudy with Light Rain 37 2.8 35 1.7 93 93 N 22 35 29.96 1015 10 16 0.02 0.51
10:37 pm 22:37 Cloudy with Light Rain 37 3 36 2 93 93 N 22 35 30.00 1016 10 16 0.01 0.25
10:56 pm 22:56 Cloudy with Light Rain 37 2.8 36 2.2 96 96 N 22 35 29.96 1015 10 16 0.01 0.25
11:56 pm 23:56 Cloudy with Light Rain 36 2.2 35 1.7 97 97 N 35 56 29.93 1014 10 16 0.01 0.25

Powered by AerisWeather